Погода в Фужаму

Габон     1°12′57″S   10°35′00″E
темп.,
°C
ветер,
м/с
пор.,
м/с
влажн.,
%
обл.,
%
осадки,
мм/ч
давл.,
гПа
погр.,
м
27 ноября, сб
сб2701:00+22з119891 5.2 101215
04:00+22ююз1199100 2.9 101133
07:00+23юв019716 3.8 101276
10:00+28юв017638 0.9 1012802
13:00+27юв128293 4.9 1010740
16:00+24юв2394100 7.8 100955
19:00+22в1199100 12.9 101162
22:00+22ю1298100 1.9 101280
28 ноября, вс
вс2801:00+22ссв009999 2.0 101124
04:00+21сз009997 0.0 101116
07:00+22зсз009899 0.0 101263
10:00+26юв108099 0.1 1013661
13:00+30юз116085 0.2 10091305
16:00+26сз118678 2.6 1008222
19:00+22зсз119661 6.0 101025
22:00+22зюз249699 4.1 1012120
29 ноября, пн
пн2901:00+22юз1397100 7.8 101181
04:00+22зюз019797 0.4 101116
07:00+22ююв119796 0.4 101236
10:00+27ююв127452 0.2 1013871
13:00+28зюз127433 2.4 1010913
16:00+27з117925 2.8 1008713
19:00+23юз229696 7.3 101040
22:00+22юз1498100 0.1 1012132
30 ноября, вт
вт3001:00+21ююз1199100 0.3 101143
04:00+21в119939 0.8 101119
07:00+22юв1299100 1.1 1012103
10:00+26ююв127894 0.0 1013729
13:00+28юв237177 0.6 10101070
16:00+26юв238693 2.8 1008568
19:00+23зюз019459 4.3 101011
22:00+22юз119796 0.7 101111
1 декабря, ср
ср101:00+22ю009880 0.7 101113
04:00+22всв119988 0.0 101016
07:00+22юв119885 0.3 101169
10:00+27ссв018048 0.0 1012620
13:00+29зсз116952 1.6 10091148
16:00+27юв018490 5.9 1007130
19:00+23юз1192100 12.3 100912
22:00+23юз1195100 0.1 101115